Location: Rounton
(54.4000°N, 1.3500°W)
Time: 14:02:03
(UTC+00:00)

Transit 2A Rocket - Pass Details

Date: 04 December 2021
Orbit: 584 x 918 km, 66.7° (Epoch: 17 January)

Event Time Altitude Azimuth Distance (km) Brightness Sun altitude
Rises 11:30:47 0° 284° (WNW) 3,498 8.2 13.1°
Reaches altitude 10° 11:33:41 10° 297° (WNW) 2,589 7.5 13.2°
Maximum altitude 11:38:45 26° 353° (N) 1,714 6.4 13.2°
Drops below altitude 10° 11:43:51 10° 49° (NE) 2,616 7.4 13.3°
Sets 11:46:49 0° 62° (ENE) 3,542 8.2 13.3°
